TimeEST,TemperatureF,Dew PointF,Humidity,Sea Level PressureIn,VisibilityMPH,Wind Direction,Wind SpeedMPH,Gust SpeedMPH,PrecipitationIn,Events,Conditions,WindDirDegrees,DateUTC
12:15 AM,41.0,39.2,93,29.61,10.0,WNW,8.1,-,N/A,,Overcast,290,2013-02-27 05:15:00
12:35 AM,41.0,39.2,93,29.60,10.0,West,10.4,-,N/A,,Mostly Cloudy,280,2013-02-27 05:35:00
12:55 AM,41.0,39.2,93,29.60,10.0,WNW,10.4,-,N/A,,Scattered Clouds,290,2013-02-27 05:55:00
1:15 AM,41.0,39.2,93,29.61,10.0,West,9.2,-,N/A,,Mostly Cloudy,280,2013-02-27 06:15:00
1:35 AM,41.0,37.4,87,29.62,10.0,West,10.4,16.1,N/A,,Overcast,280,2013-02-27 06:35:00
1:55 AM,41.0,37.4,87,29.62,10.0,West,8.1,-,N/A,,Overcast,280,2013-02-27 06:55:00
2:15 AM,41.0,37.4,87,29.61,10.0,WNW,11.5,17.3,N/A,,Overcast,290,2013-02-27 07:15:00
2:35 AM,41.0,37.4,87,29.61,10.0,West,10.4,16.1,N/A,,Overcast,280,2013-02-27 07:35:00
2:55 AM,41.0,37.4,87,29.61,10.0,West,10.4,17.3,N/A,,Overcast,280,2013-02-27 07:55:00
3:15 AM,41.0,35.6,81,29.61,10.0,WNW,13.8,19.6,N/A,,Overcast,290,2013-02-27 08:15:00
3:55 AM,39.2,35.6,87,29.62,10.0,West,11.5,-,N/A,,Scattered Clouds,280,2013-02-27 08:55:00
4:15 AM,41.0,35.6,81,29.62,10.0,West,9.2,17.3,N/A,,Overcast,270,2013-02-27 09:15:00
4:35 AM,41.0,35.6,81,29.62,10.0,West,11.5,16.1,N/A,,Overcast,260,2013-02-27 09:35:00
4:55 AM,39.2,35.6,87,29.64,10.0,West,13.8,20.7,N/A,,Mostly Cloudy,270,2013-02-27 09:55:00
5:15 AM,39.2,33.8,81,29.64,10.0,West,18.4,21.9,N/A,,Overcast,280,2013-02-27 10:15:00
5:35 AM,39.2,33.8,81,29.66,10.0,West,12.7,25.3,N/A,,Overcast,260,2013-02-27 10:35:00
5:55 AM,39.2,33.8,81,29.66,10.0,West,9.2,-,N/A,,Overcast,260,2013-02-27 10:55:00
6:15 AM,39.2,32.0,75,29.66,10.0,West,12.7,18.4,N/A,,Overcast,270,2013-02-27 11:15:00
6:35 AM,39.2,33.8,81,29.66,10.0,West,12.7,24.2,N/A,,Mostly Cloudy,270,2013-02-27 11:35:00
6:55 AM,37.4,33.8,87,29.67,10.0,West,13.8,25.3,N/A,,Overcast,280,2013-02-27 11:55:00
7:15 AM,37.4,33.8,87,29.68,10.0,West,11.5,20.7,N/A,,Mostly Cloudy,270,2013-02-27 12:15:00
7:35 AM,37.4,33.8,87,29.70,10.0,West,11.5,18.4,N/A,,Scattered Clouds,280,2013-02-27 12:35:00
7:55 AM,37.4,33.8,87,29.70,10.0,West,10.4,19.6,N/A,,Scattered Clouds,280,2013-02-27 12:55:00
8:35 AM,39.2,33.8,81,29.72,10.0,West,6.9,-,N/A,,Overcast,260,2013-02-27 13:35:00
8:55 AM,39.2,33.8,81,29.72,10.0,West,13.8,20.7,N/A,,Overcast,280,2013-02-27 13:55:00
9:15 AM,39.2,32.0,75,29.73,10.0,West,16.1,25.3,N/A,,Overcast,270,2013-02-27 14:15:00
9:35 AM,39.2,30.2,70,29.73,10.0,WNW,16.1,26.5,N/A,,Overcast,290,2013-02-27 14:35:00
10:15 AM,39.2,32.0,75,29.74,10.0,West,13.8,23.0,N/A,,Overcast,270,2013-02-27 15:15:00
10:35 AM,39.2,32.0,75,29.75,10.0,West,12.7,19.6,N/A,,Overcast,270,2013-02-27 15:35:00
10:55 AM,39.2,32.0,75,29.76,10.0,West,10.4,24.2,N/A,,Overcast,280,2013-02-27 15:55:00
11:15 AM,41.0,32.0,70,29.76,10.0,WNW,17.3,23.0,N/A,,Overcast,290,2013-02-27 16:15:00
11:35 AM,42.8,33.8,70,29.76,10.0,WNW,16.1,20.7,N/A,,Mostly Cloudy,290,2013-02-27 16:35:00
11:55 AM,41.0,33.8,76,29.76,10.0,WNW,15.0,19.6,N/A,,Mostly Cloudy,290,2013-02-27 16:55:00
12:15 PM,41.0,32.0,70,29.76,10.0,WNW,10.4,17.3,N/A,,Overcast,290,2013-02-27 17:15:00
12:35 PM,41.0,32.0,70,29.75,10.0,WNW,10.4,20.7,N/A,,Overcast,290,2013-02-27 17:35:00
12:55 PM,42.8,32.0,66,29.75,10.0,West,9.2,-,N/A,,Overcast,280,2013-02-27 17:55:00
1:15 PM,42.8,33.8,70,29.74,10.0,WNW,6.9,-,N/A,,Mostly Cloudy,300,2013-02-27 18:15:00
1:55 PM,42.8,33.8,70,29.73,10.0,WNW,9.2,-,N/A,,Mostly Cloudy,290,2013-02-27 18:55:00
2:15 PM,42.8,33.8,70,29.72,10.0,NW,6.9,-,N/A,,Mostly Cloudy,310,2013-02-27 19:15:00
2:35 PM,44.6,33.8,66,29.72,10.0,West,3.5,-,N/A,,Mostly Cloudy,270,2013-02-27 19:35:00
2:55 PM,44.6,33.8,66,29.72,10.0,Calm,Calm,-,N/A,,Mostly Cloudy,0,2013-02-27 19:55:00
3:15 PM,48.2,33.8,58,29.72,10.0,WSW,9.2,19.6,N/A,,Mostly Cloudy,240,2013-02-27 20:15:00
3:35 PM,48.2,33.8,58,29.72,10.0,SW,15.0,21.9,N/A,,Scattered Clouds,230,2013-02-27 20:35:00
3:55 PM,48.2,33.8,58,29.71,10.0,WSW,13.8,-,N/A,,Clear,240,2013-02-27 20:55:00
4:15 PM,48.2,32.0,54,29.71,10.0,SW,10.4,16.1,N/A,,Clear,230,2013-02-27 21:15:00
4:35 PM,48.2,32.0,54,29.71,10.0,West,8.1,-,N/A,,Clear,260,2013-02-27 21:35:00
4:55 PM,48.2,33.8,58,29.71,10.0,SW,6.9,-,N/A,,Clear,230,2013-02-27 21:55:00
5:15 PM,48.2,33.8,58,29.70,10.0,SSW,9.2,-,N/A,,Clear,210,2013-02-27 22:15:00
5:35 PM,48.2,33.8,58,29.71,10.0,SSW,5.8,-,N/A,,Clear,200,2013-02-27 22:35:00
5:55 PM,46.4,33.8,62,29.70,10.0,South,4.6,-,N/A,,Clear,180,2013-02-27 22:55:00
6:15 PM,46.4,33.8,62,29.71,10.0,Calm,Calm,-,N/A,,Clear,0,2013-02-27 23:15:00
6:35 PM,44.6,33.8,66,29.72,10.0,North,3.5,-,N/A,,Clear,350,2013-02-27 23:35:00
6:55 PM,42.8,33.8,70,29.73,10.0,NNW,5.8,-,N/A,,Clear,330,2013-02-27 23:55:00
7:15 PM,41.0,33.8,76,29.74,10.0,NW,9.2,-,N/A,,Clear,310,2013-02-28 00:15:00
7:35 PM,39.2,33.8,81,29.74,10.0,Calm,Calm,-,N/A,,Clear,0,2013-02-28 00:35:00
7:55 PM,39.2,33.8,81,29.74,10.0,WNW,3.5,-,N/A,,Scattered Clouds,300,2013-02-28 00:55:00
8:15 PM,39.2,33.8,81,29.74,10.0,West,3.5,-,N/A,,Overcast,280,2013-02-28 01:15:00
8:35 PM,41.0,33.8,76,29.74,10.0,WNW,12.7,26.5,N/A,,Scattered Clouds,290,2013-02-28 01:35:00
8:55 PM,41.0,33.8,76,29.74,10.0,WSW,5.8,-,N/A,,Scattered Clouds,250,2013-02-28 01:55:00
9:15 PM,41.0,33.8,76,29.73,10.0,West,4.6,9.2,N/A,,Scattered Clouds,270,2013-02-28 02:15:00
9:35 PM,41.0,33.8,76,29.73,10.0,West,8.1,-,N/A,,Scattered Clouds,270,2013-02-28 02:35:00
9:55 PM,39.2,33.8,81,29.73,10.0,WNW,9.2,-,N/A,,Scattered Clouds,290,2013-02-28 02:55:00
10:15 PM,39.2,35.6,87,29.73,10.0,West,16.1,21.9,N/A,,Scattered Clouds,280,2013-02-28 03:15:00
10:35 PM,39.2,33.8,81,29.73,10.0,West,12.7,20.7,N/A,,Clear,280,2013-02-28 03:35:00
10:55 PM,39.2,33.8,81,29.73,10.0,West,17.3,25.3,N/A,,Clear,280,2013-02-28 03:55:00
11:15 PM,39.2,30.2,70,29.73,10.0,West,16.1,26.5,N/A,,Clear,280,2013-02-28 04:15:00
11:35 PM,37.4,30.2,75,29.71,10.0,West,16.1,24.2,N/A,,Clear,270,2013-02-28 04:35:00
11:55 PM,37.4,30.2,75,29.71,10.0,West,17.3,25.3,N/A,,Clear,280,2013-02-28 04:55:00